Arad, Romania

7:24 AM EET on February 20, 2017 (GMT +0200)
Arad

Weather History for LRAR - April, 2013

Change the Weather History Date:

Monday, April 22, 2013

  Actual Average Record
Temperature  
Mean Temperature 61 °F -  
Max Temperature 76 °F 69 °F 76 °F (2013)
Min Temperature 46 °F 47 °F 35 °F (2005)
Degree Days  
Heating Degree Days 4    
Growing Degree Days 11 (Base 50)    
Moisture  
Dew Point 50 °F    
Average Humidity 64    
Maximum Humidity 100    
Minimum Humidity 27    
Precipitation  
Precipitation 0.00 in - - ()
Sea Level Pressure  
Sea Level Pressure 29.97 in    
Wind  
Wind Speed 4 mph ()    
Max Wind Speed 14 mph    
Max Gust Speed -    
Visibility 9.2 miles    
Events Rain , Thunderstorm    
Averages and records for this station are not official NWS values.
T = Trace of Precipitation, MM = Missing Value Source: Averaged Metar Reports

Daily Weather History Graph

Daily Weather History Graph

Search for Another Location

Airport or City:

Trip Planner

Search our weather history database for the weather conditions in past years. The results will help you decide how hot, cold, wet, or windy it might be!

Date:

Astronomy

Apr. 22, 2013 Rise Set
Actual Time 6:36 AM EEST 8:31 PM EEST
Civil Twilight 6:04 AM EEST 9:03 PM EEST
Nautical Twilight 5:24 AM EEST 9:43 PM EEST
Astronomical Twilight 4:41 AM EEST 10:26 PM EEST
Moon 4:49 PM EEST (4/22) 4:33 AM EEST (4/22)
Length of Visible Light 14h 59m
Length of Day
13h 55m
Waxing Gibbous, 85% of the Moon is Illuminated
Apr 22
Waxing Gibbous
Apr 25
Full
May 2
Last Quarter
May 10
New
May 18
First Quarter

Hourly Weather History & Observations

Time (EEST) Temp. Dew Point Humidity Pressure Visibility Wind Dir Wind Speed Gust Speed Precip Events Conditions
12:00 AM 54 °F 49 °F 77% 29.96 in 12 mi NE 2.2 mph - -  
12:00 AM 57.2 °F 51.8 °F 82% 29.95 in - NNE 2.3 mph - N/A   Clear
1:00 AM 54 °F 47 °F 72% 29.96 in 12 mi North 2.2 mph - -  
1:00 AM 55.4 °F 51.8 °F 88% 29.95 in - North 4.6 mph - N/A   Clear
2:00 AM 50 °F 47 °F 84% 29.97 in 12 mi East 2.2 mph - -   Clear
2:00 AM 51.8 °F 50.0 °F 94% 29.95 in - Calm Calm - N/A   Clear
3:00 AM 49 °F 47 °F 88% 29.97 in 12 mi East 2.2 mph - -  
3:00 AM 51.8 °F 51.8 °F 100% 29.95 in - Calm Calm - N/A   Clear
4:00 AM 48 °F 46 °F 88% 29.96 in 12 mi ESE 2.2 mph - -  
4:00 AM 50.0 °F 50.0 °F 100% 29.95 in - Calm Calm - N/A   Clear
5:00 AM 49 °F 46 °F 87% 29.97 in 12 mi ESE 4.5 mph - -  
5:00 AM 50.0 °F 50.0 °F 100% 29.95 in - ESE 2.3 mph - N/A   Clear
5:30 AM 51.8 °F 50.0 °F 94% 29.95 in - SSE 2.3 mph - N/A   Clear
6:00 AM 48 °F 46 °F 89% 29.96 in 12 mi SE 2.2 mph - -  
6:00 AM 50.0 °F 50.0 °F 100% 29.95 in - ESE 1.2 mph - N/A   Clear
6:30 AM 51.8 °F 50.0 °F 94% 29.95 in - SE 5.8 mph - N/A   Clear
7:00 AM 47 °F 45 °F 90% 29.97 in 6 mi ESE 2.2 mph - -   Scattered Clouds
7:00 AM 51.8 °F 50.0 °F 94% 29.95 in - SSE 6.9 mph - N/A   Clear
7:30 AM 51.8 °F 50.0 °F 94% 29.95 in - SE 6.9 mph - N/A   Clear
8:00 AM 50 °F 47 °F 86% 29.97 in 6 mi SE 4.5 mph - -   Partly Cloudy
8:00 AM 53.6 °F 51.8 °F 94% 29.98 in - SSE 6.9 mph - N/A   Clear
8:30 AM 57.2 °F 53.6 °F 88% 29.98 in - SSE 9.2 mph - N/A   Clear
9:00 AM 57 °F 51 °F 76% 29.98 in 6 mi ESE 2.2 mph - -   Partly Cloudy
9:00 AM 59.0 °F 53.6 °F 82% 29.98 in - SSE 6.9 mph - N/A   Clear
9:30 AM 62.6 °F 53.6 °F 72% 29.98 in - SSE 9.2 mph - N/A   Clear
10:00 AM 62 °F 50 °F 56% 29.98 in 12 mi SE 4.5 mph - -   Partly Cloudy
10:00 AM 64.4 °F 53.6 °F 68% 29.98 in - SSE 11.5 mph - N/A   Clear
10:30 AM 64.4 °F 51.8 °F 64% 29.98 in - SSE 11.5 mph - N/A   Clear
11:00 AM 64 °F 50 °F 50% 29.99 in 6 mi SE 6.7 mph - -   Clear
11:00 AM 66.2 °F 51.8 °F 60% 29.98 in - SSE 11.5 mph - N/A   Clear
11:30 AM 66.2 °F 50.0 °F 56% 29.98 in - SSE 9.2 mph - N/A   Clear
12:00 PM 67 °F 50 °F 44% 29.99 in 6 mi SE 4.5 mph - -   Clear
12:00 PM 68.0 °F 51.8 °F 56% 29.98 in - SE 9.2 mph - N/A   Clear
12:30 PM 68.0 °F 48.2 °F 49% 29.98 in - South 9.2 mph - N/A   Clear
1:00 PM 69 °F 47 °F 34% 29.98 in 12 mi SE 4.5 mph - -   Clear
1:00 PM 69.8 °F 50.0 °F 49% 29.98 in - SSE 9.2 mph - N/A   Clear
1:30 PM 69.8 °F 48.2 °F 46% 29.98 in - SSE 11.5 mph - N/A   Clear
2:00 PM 70 °F 49 °F 36% 29.97 in 12 mi South 4.5 mph - -   Clear
2:00 PM 71.6 °F 50.0 °F 46% 29.98 in - SSE 9.2 mph - N/A   Clear
2:30 PM 71.6 °F 50.0 °F 46% 29.98 in - SW 9.2 mph - N/A   Clear
3:00 PM 71 °F 48 °F 33% 29.96 in 12 mi SSE 4.5 mph - -   Scattered Clouds
3:00 PM 73.4 °F 51.8 °F 47% 29.95 in - SSW 4.6 mph - N/A   Clear
3:30 PM 73.4 °F 50.0 °F 44% 29.95 in 6.2 mi Variable 2.3 mph - N/A   Partly Cloudy
4:00 PM 72 °F 49 °F 33% 29.95 in 12 mi South 4.5 mph - -   Scattered Clouds
4:00 PM 71.6 °F 48.2 °F 43% 29.95 in 6.2 mi SW 6.9 mph - N/A   Partly Cloudy
4:30 PM 71.6 °F 46.4 °F 41% 29.95 in 6.2 mi SW 6.9 mph - N/A   Partly Cloudy
5:00 PM 72 °F 47 °F 30% 29.94 in 12 mi South 2.2 mph - -   Scattered Clouds
5:00 PM 73.4 °F 48.2 °F 41% 29.95 in 6.2 mi Variable 2.3 mph - N/A   Partly Cloudy
5:30 PM 73.4 °F 48.2 °F 41% 29.92 in 6.2 mi South 4.6 mph - N/A   Partly Cloudy
6:00 PM 74 °F 47 °F 27% 29.93 in 12 mi Calm Calm - -   Scattered Clouds
6:00 PM 73.4 °F 46.4 °F 38% 29.92 in 6.2 mi South 4.6 mph - N/A   Partly Cloudy
6:30 PM 73.4 °F 48.2 °F 41% 29.92 in - SSE 4.6 mph - N/A   Clear
7:00 PM 71.6 °F 53.6 °F 53% 29.95 in - Variable 4.6 mph - N/A   Clear
7:30 PM 69.8 °F 46.4 °F 43% 29.95 in 6.2 mi ESE 11.5 mph - N/A   Scattered Clouds
8:00 PM 67 °F 47 °F 37% 29.94 in 12 mi East 6.7 mph - -   Partly Cloudy
8:00 PM 68.0 °F 46.4 °F 46% 29.95 in 6.2 mi ESE 13.8 mph - N/A   Scattered Clouds
8:30 PM 68.0 °F 48.2 °F 49% 29.95 in 6.2 mi SE 11.5 mph - N/A   Mostly Cloudy
9:00 PM 64 °F 48 °F 45% 29.96 in 12 mi East 4.5 mph - -   Partly Cloudy
9:00 PM 64.4 °F 51.8 °F 64% 29.98 in 6.2 mi ESE 11.5 mph - N/A   Mostly Cloudy
10:00 PM 60 °F 49 °F 59% 30.00 in 12 mi SSE 4.5 mph - -   Mostly Cloudy
10:00 PM 62.6 °F 53.6 °F 72% 30.01 in 6.2 mi South 4.6 mph - N/A Rain , Thunderstorm Light Thunderstorms and Rain
11:00 PM 59 °F 51 °F 66% 30.03 in 12 mi South 4.5 mph - -   Partly Cloudy
11:00 PM 60.8 °F 55.4 °F 82% 30.04 in 6.2 mi SSW 6.9 mph - N/A   Scattered Clouds